Weather History for McMinnville, OR

Change the Weather History Date:

Saturday, March 16, 2013

  Actual Average Record
Temperature  
Mean Temperature 45 °F 47 °F  
Max Temperature 51 °F 56 °F 78 °F (1947)
Min Temperature 38 °F 37 °F 23 °F (1920)
Degree Days  
Heating Degree Days 20 18  
Month to date heating degree days 287 312  
Since 1 July heating degree days 3364 3691  
Cooling Degree Days 0 0  
Month to date cooling degree days 0 0  
Year to date cooling degree days 0 0  
Moisture  
Dew Point 41 °F    
Average Humidity 82    
Maximum Humidity 93    
Minimum Humidity 71    
Precipitation  
Precipitation 0.10 in 0.15 in 1.22 in (1950)
Month to date precipitation 0.73 2.11  
Year to date precipitation 3.40 12.65  
Snow  
Snow 0.00 in - - ()
Month to date snowfall 0.0  
Snow Depth 0.00 in    
Sea Level Pressure  
Sea Level Pressure 30.12 in    
Wind  
Wind Speed 9 mph (SW)    
Max Wind Speed 23 mph    
Max Gust Speed 31 mph    
Visibility 9 miles    
Events Rain    
T = Trace of Precipitation, MM = Missing Value Source: NWS Daily Summary

Daily Weather History Graph

Daily Weather History Graph

Search for Another Location

Airport:

Trip Planner

Search our weather history database for the weather conditions in past years. The results will help you decide how hot, cold, wet, or windy it might be!

Date:

Astronomy

Mar. 16, 2013 Rise Set
Actual Time 7:22 AM PDT 7:20 PM PDT
Civil Twilight 6:53 AM PDT 7:49 PM PDT
Nautical Twilight 6:18 AM PDT 8:24 PM PDT
Astronomical Twilight 5:43 AM PDT 8:59 PM PDT
Moon 9:42 AM PDT (3/16) No Moon Set
Length of Visible Light 12h 56m
Length of Day
11h 57m
Waxing Crescent, 24% of the Moon is Illuminated
Mar 16
Waxing Crescent
Mar 19
First Quarter
Mar 27
Full
Apr 2
Last Quarter
Apr 10
New

Hourly Weather History & Observations

Time (PDT) Temp. Windchill Dew Point Humidity Pressure Visibility Wind Dir Wind Speed Gust Speed Precip Events Conditions
12:53 AM 46.9 °F - 43.0 °F 86% 30.19 in 10.0 mi WSW 3.5 mph - N/A   Overcast
1:53 AM 46.9 °F - 43.0 °F 86% 30.19 in 10.0 mi SSW 6.9 mph - N/A   Scattered Clouds
2:53 AM 46.9 °F - 44.1 °F 90% 30.19 in 10.0 mi SW 6.9 mph - N/A   Overcast
3:53 AM 48.0 °F - 44.1 °F 86% 30.18 in 10.0 mi SW 6.9 mph - N/A   Overcast
4:53 AM 48.0 °F - 44.1 °F 86% 30.17 in 10.0 mi WSW 10.4 mph 77.1 mph N/A   Overcast
5:53 AM 48.0 °F - 44.1 °F 86% 30.16 in 10.0 mi SW 4.6 mph - N/A   Overcast
6:51 AM 46.4 °F 45.2 °F 44.6 °F 93% 30.14 in 10.0 mi SSW 3.5 mph - N/A   Overcast
6:53 AM 46.9 °F - 44.1 °F 90% 30.14 in 10.0 mi SSW 3.5 mph - N/A   Overcast
7:07 AM 46.4 °F 44.3 °F 42.8 °F 87% 30.13 in 10.0 mi South 4.6 mph - N/A   Overcast
7:37 AM 48.2 °F - 44.6 °F 87% 30.14 in 4.0 mi SW 8.1 mph - 0.00 in Rain Light Rain
7:53 AM 46.9 °F - 44.1 °F 90% 30.14 in 4.0 mi SW 6.9 mph - 0.00 in   Overcast
8:46 AM 48.2 °F - 44.6 °F 87% 30.15 in 10.0 mi SW 5.8 mph - N/A   Overcast
8:53 AM 48.0 °F - 43.0 °F 83% 30.15 in 10.0 mi SW 5.8 mph - N/A   Overcast
9:53 AM 48.9 °F - 43.0 °F 80% 30.15 in 10.0 mi SW 8.1 mph - N/A   Overcast
10:53 AM 50.0 °F - 44.1 °F 80% 30.14 in 10.0 mi SSW 6.9 mph - N/A   Overcast
11:53 AM 50.0 °F - 42.1 °F 74% 30.13 in 8.0 mi SW 9.2 mph - 0.01 in Rain Light Rain
12:08 PM 48.2 °F - 44.6 °F 87% 30.12 in 10.0 mi SW 9.2 mph - 0.00 in Rain Light Rain
12:20 PM 50.0 °F - 44.6 °F 82% 30.12 in 10.0 mi SW 10.4 mph - 0.00 in Rain Light Rain
12:53 PM 48.9 °F - 44.1 °F 83% 30.12 in 6.0 mi WSW 12.7 mph - 0.01 in Rain Light Rain
1:53 PM 50.0 °F - 42.1 °F 74% 30.09 in 10.0 mi WSW 10.4 mph - 0.01 in   Overcast
2:53 PM 50.0 °F - 43.0 °F 77% 30.07 in 10.0 mi SW 9.2 mph - 0.00 in Rain Light Rain
3:11 PM 48.2 °F - 42.8 °F 82% 30.06 in 8.0 mi WSW 8.1 mph - 0.01 in Rain Light Rain
3:53 PM 48.9 °F - 43.0 °F 80% 30.04 in 10.0 mi West 12.7 mph - 0.01 in Rain Light Rain
4:33 PM 48.2 °F - 41.0 °F 76% 30.04 in 10.0 mi West 13.8 mph 23.0 mph 0.04 in Rain Light Rain
4:53 PM 46.0 °F 38.5 °F 37.0 °F 71% 30.06 in 10.0 mi NW 19.6 mph 31.1 mph 0.05 in Rain Light Rain
5:00 PM 46.4 °F 38.3 °F 35.6 °F 66% 30.06 in 10.0 mi NW 23.0 mph 28.8 mph 0.00 in Rain Light Rain
5:53 PM 44.1 °F 39.5 °F 37.0 °F 76% 30.06 in 10.0 mi WSW 8.1 mph - 0.00 in Rain Light Rain
6:53 PM 42.1 °F 34.9 °F 36.0 °F 79% 30.07 in 10.0 mi SW 13.8 mph - 0.00 in   Partly Cloudy
7:53 PM 39.9 °F 35.1 °F 36.0 °F 86% 30.09 in 10.0 mi SSW 6.9 mph - 0.00 in   Partly Cloudy
8:53 PM 42.1 °F 36.6 °F 37.9 °F 85% 30.11 in 10.0 mi SW 9.2 mph - 0.00 in Rain Light Rain
9:10 PM 42.8 °F 36.6 °F 37.4 °F 81% 30.11 in 10.0 mi SW 11.5 mph - 0.01 in Rain Light Rain
9:17 PM 42.8 °F 36.6 °F 37.4 °F 81% 30.11 in 10.0 mi SW 11.5 mph - 0.01 in   Mostly Cloudy
9:53 PM 42.1 °F 35.7 °F 36.0 °F 79% 30.12 in 10.0 mi West 11.5 mph - 0.01 in Rain Light Rain
10:53 PM 41.0 °F - 33.1 °F 73% 30.16 in 10.0 mi Calm Calm - 0.00 in   Scattered Clouds
11:53 PM 39.0 °F 32.3 °F 33.1 °F 79% 30.18 in 10.0 mi SW 10.4 mph - N/A   Scattered Clouds